Location: Marcé
(47.5801°N, 0.3280°W)
Time: 14:55:06
(UTC+01:00)

Explorer 11/Cluster Stage 4 - Pass Details

Date: 02 December 2021
Orbit: 467 x 1255 km, 28.8° (Epoch: 23 January)

Event Time Altitude Azimuth Distance (km) Brightness Sun altitude
Exits shadow 04:50:58 17° 170° (S) 2,603 9.2 -36.0°
Drops below altitude 10° 04:55:44 10° 134° (SE) 3,194 10.1 -35.2°
Sets 04:59:52 0° 116° (ESE) 4,192 11.1 -34.5°
